STARLINK-2701, 48656

Orbit data source: Space-Track

STARLINK-2701, 48656 is a payload satellite owned by SpaceX/Seattle (US) in LEO that was launched on Wed, 26 May 2021 UTC via an FALCON 9 launch vehicle from the Air Force Eastern Test Range (AFETR). Payload-class satellites include a variety of spacecraft equipped with specific instruments for various scientific and technological missions. These include communications satellites like Starlink; space stations such as the ISS; scientific satellites like the Hubble; Earth observation satellites from companies like Planet Labs, Umbra, and HawkEye 360; GPS; miniature CubeSats for education and research; and military/defense satellites.

Loading next visibility...
Identifier
48656, 2021-044U
Orbit
LEO
Country
Flag of USUS
Related business
Manufacturer
SpaceX/Seattle
Mission
Operational Commercial Communications
Bus & Motor
STARLINK, Unknown motor
Mass
260 kg wet, ~248 kg dry
Launch date (UTC)
2021-05-26 (5 years ago)
Launch vehicle
FALCON 9
Launch site
Air Force Eastern Test Range (AFETR)
Object type
Payload
Rocket body
Debris
Shape & HBR
Box + 1 Pan, 10.1 m
Radar Cross Section
13.562 m², Large (>1 m²)

Expand to show TLE details & history
Last TLE update: 2 days ago

TLE from 2 days ago
0 STARLINK-2701
1 48656U 21044U   26171.21576403  .00001404  00000-0  56987-4 0  9993
2 48656  53.1596 356.8681 0001069  99.8080 260.3043 15.31704421279539
Epoch: 2026-06-20T05:10Z
TLE epoch observation values (Epoch: 2026-06-20T05:10:42.012Z)
Latitude
0.00006°
Longitude
10.75952°
Altitude
471.75 km
Speed
7.631 km/s
True Right ascension
23h 47m 28s
True Declination
0° 00' 00"
Sunlit
Object was in daylight at epoch
Visualization orbit readout
Latitude
Unknown
Longitude
Unknown
Altitude
Unknown
Speed
Unknown
Apparent Right ascension
Unknown
Apparent Declination
Unknown
Sunlit
N/A
Visualization observer readout
Local Sidereal Time
23:18:24
Azimuth
Unknown
Elevation
Unknown
Doppler factor
Unknown
Orbital elements
Apogee altitude
471.716 km
Perigee altitude
470.251 km
Semi-major axis
6,849.12 km
Eccentricity
0.00011
Inclination
53.1596°
RAAN
356.8681°
Arg. of periapsis
99.808°
True anomaly
260.29223°
Mean anomaly
260.3043°
Eccentric anomaly
260.29826°
Mean motion
3.82905 °/min
Orbital period
94.02 mins
BSTAR
0.000056987
Loading maneuver chart data...
Computing Atmospheric mass density...
Loading historical data...
Loading historical data...
Loading historical data...
Loading historical data...
Loading historical data...
Loading historical data...
Loading historical data...

Documentation

Showing up to 5 results
|